Regional Weather Roundup
Issued by NWS

Home | Current Version | Previous Version | Text Only | Print | Product List | Glossary Off
Versions: 1 2 3 4 5 6 7 8 9 10 11 12 13 14 15 16 17 18 19 20 21 22 23 24 25 26 27 28 29 30 31 32 33 34 35 36 37 38 39 40 41 42 43 44 45 46 47 48 49 50

595
ASUS43 KMKX 100021
RWRWI

WISCONSIN REGIONAL WEATHER ROUNDUP
NATIONAL WEATHER SERVICE MILWAUKEE/SULLIVAN WI
600 PM CST TUE FEB 09 2016

NOTE: "FAIR" INDICATES FEW OR NO CLOUDS BELOW 12,000 FEET WITH NO
SIGNIFICANT WEATHER AND/OR OBSTRUCTIONS TO VISIBILITY.

WIZ001-002-006>008-014>016-023>028-100100-
NORTHWEST WISCONSIN

CITY           SKY/WX    TMP DP  RH WIND       PRES   REMARKS
SUPERIOR ARPT  CLEAR     10  -3  56 NW12      30.14R WCI  -5
6HR MIN TEMP:   9; 6HR MAX TEMP:  14;

ASHLAND        CLOUDY    10   2  69 N14       30.09R WCI  -6
6HR MIN TEMP:  10; 6HR MAX TEMP:  13; 6HR PCP: TRACE;

HAYWARD        CLEAR      9  -3  58 NW8       30.05R WCI  -3
6HR MIN TEMP:   8; 6HR MAX TEMP:  13; 6HR PCP: TRACE;

SIREN          CLEAR     11  -6  46 N8G17     30.10R WCI   0
6HR MIN TEMP:  10; 6HR MAX TEMP:  16;

CUMBERLAND     CLEAR     10  -6  48 NW12      30.05R WCI  -4
RICE LAKE      CLEAR     12  -5  46 NW7       30.06R WCI   1
6HR MIN TEMP:   9; 6HR MAX TEMP:  15;

CHETEK         CLEAR      9  -3  58 NW3       30.05R
6HR MIN TEMP:   9; 6HR MAX TEMP:  14;

LADYSMITH      PTCLDY    10   1  64 N13       30.03R WCI  -5
6HR MIN TEMP:  10; 6HR MAX TEMP:  12;

EAU CLAIRE     CLEAR     12  -4  48 NW9       30.05R WCI   0
6HR MIN TEMP:   9; 6HR MAX TEMP:  14;

MENOMONIE      CLEAR     14  -4  45 NW14      30.06R WCI  -1
6HR MIN TEMP:  13; 6HR MAX TEMP:  17;

NEW RICHMOND   CLEAR     11  -3  55 NW12      30.10R WCI  -4
6HR MIN TEMP:  10; 6HR MAX TEMP:  15;

OSCEOLA        CLEAR     12  -2  53 NW10G16   30.14R WCI  -1
6HR MIN TEMP:  11; 6HR MAX TEMP:  16;

$$

WIZ003>005-009-010-017-018-100100-
NORTH CENTRAL WISCONSIN

CITY           SKY/WX    TMP DP  RH WIND       PRES   REMARKS
MANITOWISH WTR LGT SNOW   8   4  84 NW10      29.93R WCI  -7
6HR MIN TEMP:   8; 6HR MAX TEMP:  10;

ARBOR VITAE    LGT SNOW  11   6  77 N9G17     29.92R WCI  -1
6HR MIN TEMP:  11; 6HR MAX TEMP:  14;

WOODRUFF       LGT SNOW  11   6  77 N9G17     29.92R WCI  -1
6HR MIN TEMP:  11; 6HR MAX TEMP:  14;

RHINELANDER    LGT SNOW   9   2  73 NW12      29.91R WCI  -6
6HR MIN TEMP:   9; 6HR MAX TEMP:  13; 6HR PCP: TRACE;

EAGLE RIVER    LGT SNOW   9   1  70 NW13G21   29.90R WCI  -7
LAND O LAKES   LGT SNOW   9   4  79 NW10G17   29.90S WCI  -5
6HR MIN TEMP:   9; 6HR MAX TEMP:  11;

PHILLIPS       CLOUDY     8   1  74 NW7       29.97R WCI  -4
6HR MIN TEMP:   7; 6HR MAX TEMP:   9;

TOMAHAWK       CLOUDY     9   1  72 NW9G16    29.94R WCI  -5
6HR MIN TEMP:   9; 6HR MAX TEMP:  14;

MEDFORD        CLOUDY     9   2  75 NW14G20   29.95R WCI  -8
6HR MIN TEMP:   9; 6HR MAX TEMP:  12;

MERRILL        CLOUDY    10   1  68 NW13      29.96R WCI  -5
6HR MIN TEMP:  10; 6HR MAX TEMP:  16;

$$

WIZ029-030-035-036-043>047-100100-
CENTRAL WISCONSIN

CITY           SKY/WX    TMP DP  RH WIND       PRES   REMARKS
WAUSAU         CLOUDY    12   1  61 NW16G30   29.93R WCI  -5
6HR MIN TEMP:  12; 6HR MAX TEMP:  17; 6HR PCP: TRACE;

MOSINEE        CLOUDY    10   3  72 NW16G22   29.94R WCI  -7
MARSHFIELD     CLOUDY    11   1  64 N16       29.96R WCI  -6
6HR MIN TEMP:  11; 6HR MAX TEMP:  14;

STEVENS POINT  CLOUDY    11   1  62 NW10G18   29.95R WCI  -2
6HR MIN TEMP:  11; 6HR MAX TEMP:  15;

WAUPACA        CLOUDY    18   5  56 NW13G18   29.93R WCI   5
6HR MIN TEMP:  18; 6HR MAX TEMP:  21;

WAUTOMA        CLOUDY    14   3  61 NW16G23   29.95R WCI  -2
6HR MIN TEMP:  14; 6HR MAX TEMP:  18; 6HR PCP: TRACE;

WISC RAPIDS    CLOUDY    12   0  58 NW10      29.98R WCI  -1
6HR MIN TEMP:  12; 6HR MAX TEMP:  16;

CAMP DOUGLAS   PTCLDY    10   0  61 W10       29.99R WCI  -3
$$

WIZ011>013-019>022-031-037>040-048>050-100100-
NORTHEAST WISCONSIN

CITY           SKY/WX    TMP DP  RH WIND       PRES   REMARKS
ANTIGO         CLOUDY    10   2  71 N15       29.88R WCI  -7
6HR MIN TEMP:  10; 6HR MAX TEMP:  14;

SHAWANO        CLOUDY    18   3  52 N10       29.92R WCI   6
6HR MIN TEMP:  18; 6HR MAX TEMP:  22;

OCONTO         CLOUDY    15   5  64 N14G20    29.91R WCI   0
6HR MIN TEMP:  15; 6HR MAX TEMP:  19;

STURGEON BAY   CLOUDY    14   3  62 NW20      29.89R WCI  -3
6HR MIN TEMP:  12; 6HR MAX TEMP:  18;

GREEN BAY      CLOUDY    15   8  73 N9        29.91R WCI   3
6HR MIN TEMP:  15; 6HR MAX TEMP:  20; 6HR PCP: TRACE;

MANITOWOC      LGT SNOW  17  12  80 N16       29.89R WCI   2
6HR MIN TEMP:  17; 6HR MAX TEMP:  19; 6HR PCP: TRACE;

APPLETON       MOCLDY    16   7  67 NW13      29.88R WCI   2
CLINTONVILLE   CLOUDY    18   3  53 N14G20    29.92R WCI   4
OSHKOSH        CLOUDY    17   7  64 N14G25    29.90R WCI   3
6HR MIN TEMP:  15; 6HR MAX TEMP:  19; 6HR PCP: TRACE;

$$

WIZ032>034-041-042-053>061-100100-
SOUTHWEST WISCONSIN

CITY           SKY/WX    TMP DP  RH WIND       PRES   REMARKS
LA CROSSE      CLEAR     11  -1  58 N9        30.05R WCI  -2
6HR MIN TEMP:  11; 6HR MAX TEMP:  15;

SPARTA         CLEAR     11   0  62 NW8       30.04R WCI  -1
6HR MIN TEMP:  11; 6HR MAX TEMP:  15;

VIROQUA        CLEAR      9  -1  63 NW12      29.98R WCI  -6
6HR MIN TEMP:   9; 6HR MAX TEMP:  13;

BOSCOBEL       CLEAR     14  -3  47 N6        30.04R WCI   5
6HR MIN TEMP:  14; 6HR MAX TEMP:  18; 6HR PCP: TRACE;

PRAIRIE DU CHI CLEAR     13   1  58 W8        30.05R WCI   2
6HR MIN TEMP:  13; 6HR MAX TEMP:  16;

PLATTEVILLE    CLEAR     13   1  60 NW13      29.98R WCI  -2
6HR MIN TEMP:  13; 6HR MAX TEMP:  16;

$$

WIZ056-057-062-063-064-067-068-100100-
SOUTH CENTRAL WISCONSIN

CITY           SKY/WX    TMP DP  RH WIND       PRES   REMARKS
REEDSBURG      PTCLDY    11  -1  57 NW12G18   29.98R WCI  -3
6HR MIN TEMP:  11; 6HR MAX TEMP:  15;

BARABOO/DELLS  CLOUDY    12   0  57 NW9       29.96R WCI   0
6HR MIN TEMP:  12; 6HR MAX TEMP:  15;

LONE ROCK      CLEAR     13  -2  51 NW10      30.02R WCI   0
6HR MIN TEMP:  13; 6HR MAX TEMP:  16; 6HR PCP: TRACE;

MINERAL POINT  CLEAR     14   3  62 NW7       29.96R WCI   4
MADISON        CLOUDY    14   3  61 NW13      29.95R WCI   0
6HR MIN TEMP:  13; 6HR MAX TEMP:  16; 6HR PCP: TRACE;

MIDDLETON      CLOUDY    15   4  62 NW16G22   29.95S WCI  -1
6HR MIN TEMP:  15; 6HR MAX TEMP:  18;

WATERTOWN      LGT SNOW  15   9  79 NW13G21   29.92R WCI   1
6HR MIN TEMP:  15; 6HR MAX TEMP:  17;

MONROE         MOCLDY    14   3  62 NW14G22   29.95R WCI  -1
JANESVILLE     LGT SNOW  16   7  67 NW12G17   29.94R WCI   3
$$

WIZ051-052-058>065-066-070>072-100100-
SOUTHEAST WISCONSIN

CITY           SKY/WX    TMP DP  RH WIND       PRES   REMARKS
MILWAUKEE      LGT SNOW  16  10  77 NW12      29.90R WCI   3
6HR MIN TEMP:  17; 6HR MAX TEMP:  18; 6HR PCP: TRACE;

WAUKESHA       CLOUDY    12   7  79 W10       29.91R WCI  -1
MILWAUKEE/TIMM FLURRIES  16   9  73 W10       29.91R WCI   3
RACINE         MOCLDY    16   7  67 W9        29.92R WCI   4
6HR MIN TEMP:  16; 6HR MAX TEMP:  19; 6HR PCP: TRACE;

BURLINGTON     FLURRIES  13   7  78 NW12      29.92R WCI  -1
6HR MIN TEMP:  13; 6HR MAX TEMP:  16;

KENOSHA        FLURRIES  16   8  71 NW13      29.91R WCI   2
6HR MIN TEMP:  15; 6HR MAX TEMP:  18; 6HR PCP: TRACE;

FOND DU LAC    FLURRIES  17  10  74 NW17      29.90R WCI   1
6HR MIN TEMP:  15; 6HR MAX TEMP:  18; 6HR PCP: TRACE;

SHEBOYGAN      LGT SNOW  17  11  77 NW13G18   29.88R WCI   4
6HR MIN TEMP:  17; 6HR MAX TEMP:  19; 6HR PCP: TRACE;

WEST BEND      LGT SNOW  18  12  79 CALM      29.88R
JUNEAU         LGT SNOW  14   8  76 NW12G18   29.92R WCI   1
6HR MIN TEMP:  13; 6HR MAX TEMP:  16;

$$

LSZ147-162-100100-
LAKE SUPERIOR

STATION/POSITION TIME  TEMP    WIND        PRES    WAVE
                       AIR SEA DIR/SP/G            HT/PER
                 (UTC) (F)     (DEG/KT/KT) (MB)    (FT/S)
DEVILS ISLAND    0000   10     330/ 23/ 27 1020.8R
SAXON HARBOR     0000   13                 1017.9
$$

LMZ867-665-643>646-100100-
LAKE MICHIGAN

STATION/POSITION TIME  TEMP    WIND        PRES    WAVE
                       AIR SEA DIR/SP/G            HT/PER
                 (UTC) (F)     (DEG/KT/KT) (MB)    (FT/S)
CHAMBERS ISLAND  2340   15     300/ 15/ 23 1011.5R
ALGOMA LAKESHORE 2341          320/ 13/ 22 C1F1C2F2C3F3C4F4C5F5C6F6C7F7C8M1C9M2Ca!



USA.gov is the U.S. government's official web portal to all federal, state and local government web resources and services.